Flag for U.S.A. Weather past 2 weeks in Sunrise, Florida, U.S.A.

Now
88 °F

Passing clouds.


Feels Like: 93 °F
Forecast: 73 / 90 °F
Wind: 9 mph from West

Location: Fort Lauderdale Executive Airport

Current Time: Sep 17, 2014 at 4:28:25 PM

Latest Report: Sep 17, 2014 at 3:53 PM


Visibility: 10 mi

Pressure: 29.89 "Hg

Humidity: 55%

Dew point: 70 °F

Location of SunriseLocation

Historic Weather in Sunrise — Graph

°F

Sunrise temperature yesterday

Maximum temperature yesterday: 84 °F (at 9:53 AM)
Minimum temperature yesterday: 77 °F (at 11:53 PM)
Average temperature yesterday: 80 °F

Past Weeks' High & Low Weather Summary

 TemperatureHumidityPressure
High91 °F (Sep 2, 3:53 PM)100% (Sep 4, 7:53 AM)30.16 "Hg (Sep 4, 7:53 AM)
Low74 °F (Sep 12, 6:53 AM)52% (Sep 17, 2:53 PM)29.90 "Hg (Sep 17, 2:53 PM)
Average82 °F81%30.03 "Hg
* Reported Sep 2 2:53 PM — Sep 17 2:53 PM, Sunrise, Weather by CustomWeather, © 2014

Note: Actual official high and low records may vary slightly from our data, if they occured in-between our weather recording intervals... More about our weather records

Advertising

Sunrise weather history for previous 24 hours

 ConditionsComfort  
Time TempWeatherWind HumidityBarometerVisibility
2:53 PM
Sep 17
90 °FScattered clouds.7 mph52%29.90 "Hg10 mi
1:53 PM89 °FScattered clouds.13 mph53%29.92 "Hg10 mi
12:53 PM89 °FScattered clouds.9 mph55%29.95 "Hg10 mi
11:53 AM86 °FPassing clouds.7 mph63%29.98 "Hg10 mi
10:53 AM83 °FScattered clouds.7 mph74%29.99 "Hg10 mi
9:53 AM81 °FScattered clouds.5 mph79%29.98 "Hg10 mi
8:53 AM78 °FScattered clouds.3 mph87%29.98 "Hg10 mi
7:53 AM77 °FPassing clouds.No wind94%29.97 "Hg10 mi
6:53 AM75 °FClear.No wind96%29.95 "Hg10 mi
5:53 AM75 °FClear.No wind96%29.95 "Hg10 mi
4:53 AM75 °FClear.No wind96%29.95 "Hg10 mi
3:53 AM76 °FClear.No wind94%29.95 "Hg10 mi
2:53 AM75 °FClear.3 mph96%29.97 "Hg10 mi
1:53 AM75 °FClear.No wind96%29.98 "Hg10 mi
12:53 AM76 °FClear.No wind94%30.01 "Hg10 mi
11:53 PM
Sep 16
77 °FPassing clouds.6 mph94%30.03 "Hg10 mi
10:53 PM78 °FClear.6 mph93%30.03 "Hg10 mi
9:53 PM78 °FClear.No wind96%30.01 "Hg10 mi
8:53 PM78 °FClear.No wind93%30.00 "Hg10 mi
7:53 PM79 °FScattered clouds.No wind90%29.99 "Hg10 mi
6:53 PM80 °FBroken clouds.No wind85%30.00 "Hg10 mi
5:53 PM80 °FBroken clouds.3 mph85%29.99 "Hg10 mi
4:53 PM83 °FBroken clouds.5 mph77%29.99 "Hg10 mi
4:00 PM83 °FBroken clouds.No wind82%30.00 "Hg10 mi
Weather by CustomWeather, © 2014

See weather overviewHow to use our weather pages